Time,TemperatureF,DewpointF,PressureIn,WindDirection,WindDirectionDegrees,WindSpeedMPH,WindSpeedGustMPH,Humidity,HourlyPrecipIn,Conditions,Clouds,dailyrainin,SoftwareType,DateUTC
2013-07-23 00:02:00,58.0,-99.9,-100.00,NNE,23,0.0,2.0,-999,0.00,,,0.00,,2013-07-23 05:02:00,
2013-07-23 00:11:00,57.0,-99.9,-100.00,NNE,23,0.0,3.0,-999,0.00,,,0.00,,2013-07-23 05:11:00,
2013-07-23 00:33:00,57.0,-99.9,-100.00,NNE,23,0.0,3.0,-999,0.00,,,0.00,,2013-07-23 05:33:00,
2013-07-23 00:44:00,57.0,-99.9,-100.00,WNW,293,0.0,5.0,-999,0.00,,,0.00,,2013-07-23 05:44:00,
2013-07-23 01:01:00,56.0,-99.9,-100.00,WNW,293,0.0,3.0,-999,0.00,,,0.00,,2013-07-23 06:01:00,
2013-07-23 01:11:00,56.0,-99.9,-100.00,WNW,293,0.0,2.0,-999,0.00,,,0.00,,2013-07-23 06:11:00,
2013-07-23 01:33:00,55.0,-99.9,-100.00,WNW,293,0.0,1.0,-999,0.00,,,0.00,,2013-07-23 06:33:00,
2013-07-23 01:42:00,54.0,-99.9,-100.00,WNW,293,0.0,2.0,-999,0.00,,,0.00,,2013-07-23 06:42:00,
2013-07-23 02:02:00,53.0,-99.9,-100.00,WNW,293,0.0,2.0,-999,0.00,,,0.00,,2013-07-23 07:02:00,
2013-07-23 02:12:00,53.0,-99.9,-100.00,WNW,293,0.0,1.0,-999,0.00,,,0.00,,2013-07-23 07:12:00,
2013-07-23 02:33:00,52.0,-99.9,-100.00,WNW,293,1.0,2.0,-999,0.00,,,0.00,,2013-07-23 07:33:00,
2013-07-23 02:42:00,52.0,-99.9,-100.00,WNW,293,1.0,3.0,-999,0.00,,,0.00,,2013-07-23 07:42:00,
2013-07-23 03:01:00,52.0,-99.9,-100.00,WNW,293,1.0,5.0,-999,0.00,,,0.00,,2013-07-23 08:01:00,
2013-07-23 03:11:00,52.0,-99.9,-100.00,WNW,293,0.0,5.0,-999,0.00,,,0.00,,2013-07-23 08:11:00,
2013-07-23 03:33:00,54.0,-99.9,-100.00,WNW,293,1.0,5.0,-999,0.00,,,0.00,,2013-07-23 08:33:00,
2013-07-23 03:43:00,54.0,-99.9,-100.00,WNW,293,1.0,7.0,-999,0.00,,,0.00,,2013-07-23 08:43:00,
2013-07-23 04:01:00,54.0,-99.9,-100.00,NNW,338,1.0,5.0,-999,0.00,,,0.00,,2013-07-23 09:01:00,
2013-07-23 04:11:00,54.0,-99.9,-100.00,NNW,338,1.0,3.0,-999,0.00,,,0.00,,2013-07-23 09:11:00,
2013-07-23 04:33:00,54.0,-99.9,-100.00,NNW,338,0.0,5.0,-999,0.00,,,0.00,,2013-07-23 09:33:00,
2013-07-23 05:02:00,53.0,-99.9,-100.00,NNW,338,0.0,3.0,-999,0.00,,,0.00,,2013-07-23 10:02:00,
2013-07-23 05:11:00,53.0,-99.9,-100.00,NNW,338,0.0,3.0,-999,0.00,,,0.00,,2013-07-23 10:11:00,
2013-07-23 05:32:00,53.0,-99.9,-100.00,NNW,338,0.0,1.0,-999,0.00,,,0.00,,2013-07-23 10:32:00,
2013-07-23 05:44:00,53.0,-99.9,-100.00,NNW,338,0.0,2.0,-999,0.00,,,0.00,,2013-07-23 10:44:00,
2013-07-23 06:02:00,52.0,-99.9,-100.00,North,0,1.0,6.0,-999,0.00,,,0.00,,2013-07-23 11:02:00,
2013-07-23 06:12:00,52.0,-99.9,-100.00,NNE,23,1.0,6.0,-999,0.00,,,0.00,,2013-07-23 11:12:00,
2013-07-23 06:32:00,52.0,-99.9,-100.00,NNE,23,1.0,3.0,-999,0.00,,,0.00,,2013-07-23 11:32:00,
2013-07-23 06:43:00,52.0,-99.9,-100.00,North,0,1.0,3.0,-999,0.00,,,0.00,,2013-07-23 11:43:00,
2013-07-23 07:02:00,52.0,-99.9,-100.00,NNE,23,1.0,6.0,-999,0.00,,,0.00,,2013-07-23 12:02:00,
2013-07-23 07:11:00,52.0,-99.9,-100.00,North,0,1.0,5.0,-999,0.00,,,0.00,,2013-07-23 12:11:00,
2013-07-23 07:33:00,53.0,-99.9,-100.00,NNW,338,3.0,8.0,-999,0.00,,,0.00,,2013-07-23 12:33:00,
2013-07-23 07:43:00,54.0,-99.9,-100.00,North,0,1.0,8.0,-999,0.00,,,0.00,,2013-07-23 12:43:00,
2013-07-23 08:02:00,54.0,-99.9,-100.00,North,0,1.0,12.0,-999,0.00,,,0.00,,2013-07-23 13:02:00,
2013-07-23 08:11:00,54.0,-99.9,-100.00,North,0,3.0,9.0,-999,0.00,,,0.00,,2013-07-23 13:11:00,
2013-07-23 08:32:00,55.0,-99.9,-100.00,North,0,1.0,10.0,-999,0.00,,,0.00,,2013-07-23 13:32:00,
2013-07-23 08:43:00,55.0,-99.9,-100.00,North,0,5.0,15.0,-999,0.00,,,0.00,,2013-07-23 13:43:00,
2013-07-23 09:02:00,55.0,-99.9,-100.00,NNE,23,5.0,16.0,-999,0.00,,,0.00,,2013-07-23 14:02:00,
2013-07-23 09:12:00,55.0,-99.9,-100.00,North,0,2.0,12.0,-999,0.00,,,0.00,,2013-07-23 14:12:00,
2013-07-23 09:33:00,58.0,-99.9,-100.00,North,0,2.0,8.0,-999,0.00,,,0.00,,2013-07-23 14:33:00,
2013-07-23 09:44:00,57.0,-99.9,-100.00,NNE,23,5.0,9.0,-999,0.00,,,0.00,,2013-07-23 14:44:00,
2013-07-23 10:03:00,58.0,-99.9,-100.00,North,0,2.0,15.0,-999,0.00,,,0.00,,2013-07-23 15:03:00,
2013-07-23 10:11:00,58.0,-99.9,-100.00,NNE,23,3.0,8.0,-999,0.00,,,0.00,,2013-07-23 15:11:00,
2013-07-23 10:32:00,58.0,-99.9,-100.00,NNE,23,7.0,13.0,-999,0.00,,,0.00,,2013-07-23 15:32:00,
2013-07-23 10:43:00,58.0,-99.9,-100.00,North,0,3.0,15.0,-999,0.00,,,0.00,,2013-07-23 15:43:00,
2013-07-23 11:01:00,61.0,-99.9,-100.00,North,0,5.0,12.0,-999,0.00,,,0.00,,2013-07-23 16:01:00,
2013-07-23 11:12:00,61.0,-99.9,-100.00,NE,45,2.0,12.0,-999,0.00,,,0.00,,2013-07-23 16:12:00,
2013-07-23 11:33:00,62.0,-99.9,-100.00,NNE,23,2.0,15.0,-999,0.00,,,0.00,,2013-07-23 16:33:00,
2013-07-23 11:43:00,61.0,-99.9,-100.00,NNE,23,3.0,15.0,-999,0.00,,,0.00,,2013-07-23 16:43:00,
2013-07-23 12:02:00,62.0,-99.9,-100.00,NNE,23,2.0,14.0,-999,0.00,,,0.00,,2013-07-23 17:02:00,
2013-07-23 12:11:00,63.0,-99.9,-100.00,NNE,23,7.0,16.0,-999,0.00,,,0.00,,2013-07-23 17:11:00,
2013-07-23 12:33:00,63.0,-99.9,-100.00,NNE,23,5.0,15.0,-999,0.00,,,0.00,,2013-07-23 17:33:00,
2013-07-23 12:42:00,64.0,-99.9,-100.00,NNE,23,7.0,15.0,-999,0.00,,,0.00,,2013-07-23 17:42:00,
2013-07-23 13:14:00,64.0,-99.9,-100.00,North,0,3.0,10.0,-999,0.00,,,0.00,,2013-07-23 18:14:00,
2013-07-23 13:37:00,64.0,-99.9,-100.00,North,0,1.0,13.0,-999,0.00,,,0.00,,2013-07-23 18:37:00,
2013-07-23 13:49:00,65.0,-99.9,-100.00,North,0,3.0,12.0,-999,0.00,,,0.00,,2013-07-23 18:49:00,
2013-07-23 14:04:00,66.0,-99.9,-100.00,North,0,5.0,14.0,-999,0.00,,,0.00,,2013-07-23 19:04:00,
2013-07-23 14:15:00,64.0,-99.9,-100.00,NNE,23,3.0,15.0,-999,0.00,,,0.00,,2013-07-23 19:15:00,
2013-07-23 14:36:00,66.0,-99.9,-100.00,NNE,23,2.0,10.0,-999,0.00,,,0.00,,2013-07-23 19:36:00,
2013-07-23 14:50:00,66.0,-99.9,-100.00,NNE,23,1.0,12.0,-999,0.00,,,0.00,,2013-07-23 19:50:00,
2013-07-23 15:15:00,68.0,-99.9,-100.00,NNW,338,2.0,9.0,-999,0.00,,,0.00,,2013-07-23 20:15:00,
2013-07-23 15:35:00,67.0,-99.9,-100.00,North,0,2.0,12.0,-999,0.00,,,0.00,,2013-07-23 20:35:00,
2013-07-23 15:48:00,67.0,-99.9,-100.00,NNE,23,3.0,12.0,-999,0.00,,,0.00,,2013-07-23 20:48:00,
2013-07-23 16:05:00,66.0,-99.9,-100.00,North,0,3.0,12.0,-999,0.00,,,0.00,,2013-07-23 21:05:00,
2013-07-23 16:15:00,66.0,-99.9,-100.00,North,0,2.0,6.0,-999,0.00,,,0.00,,2013-07-23 21:15:00,
2013-07-23 16:39:00,63.0,-99.9,-100.00,NNE,23,2.0,14.0,-999,0.00,,,0.00,,2013-07-23 21:39:00,
2013-07-23 17:06:00,63.0,-99.9,-100.00,NNE,23,2.0,16.0,-999,0.00,,,0.00,,2013-07-23 22:06:00,
2013-07-23 17:14:00,63.0,-99.9,-100.00,NNE,23,3.0,16.0,-999,0.00,,,0.00,,2013-07-23 22:14:00,
2013-07-23 17:48:00,64.0,-99.9,-100.00,NNE,23,3.0,7.0,-999,0.00,,,0.00,,2013-07-23 22:48:00,
2013-07-23 18:15:00,63.0,-99.9,-100.00,North,0,6.0,15.0,-999,0.00,,,0.00,,2013-07-23 23:15:00,
2013-07-23 18:38:00,63.0,-99.9,-100.00,North,0,2.0,9.0,-999,0.00,,,0.00,,2013-07-23 23:38:00,
2013-07-23 18:48:00,62.0,-99.9,-100.00,North,0,3.0,9.0,-999,0.00,,,0.00,,2013-07-23 23:48:00,
2013-07-23 19:15:00,62.0,-99.9,-100.00,NE,45,1.0,6.0,-999,0.00,,,0.00,,2013-07-24 00:15:00,
2013-07-23 19:34:00,61.0,-99.9,-100.00,NNE,23,2.0,8.0,-999,0.00,,,0.00,,2013-07-24 00:34:00,
2013-07-23 19:51:00,61.0,-99.9,-100.00,North,0,1.0,7.0,-999,0.00,,,0.00,,2013-07-24 00:51:00,
2013-07-23 20:05:00,60.0,-99.9,-100.00,North,0,2.0,6.0,-999,0.00,,,0.00,,2013-07-24 01:05:00,
2013-07-23 20:16:00,60.0,-99.9,-100.00,North,0,0.0,3.0,-999,0.00,,,0.00,,2013-07-24 01:16:00,
2013-07-23 20:25:00,60.0,-99.9,-100.00,North,0,0.0,2.0,-999,0.00,,,0.00,,2013-07-24 01:25:00,
2013-07-23 20:36:00,59.0,-99.9,-100.00,North,0,0.0,3.0,-999,0.00,,,0.00,,2013-07-24 01:36:00,
2013-07-23 20:49:00,58.0,-99.9,-100.00,NNE,23,0.0,5.0,-999,0.00,,,0.00,,2013-07-24 01:49:00,
2013-07-23 21:19:00,56.0,-99.9,-100.00,NNE,23,0.0,0.0,-999,0.00,,,0.00,,2013-07-24 02:19:00,
2013-07-23 21:40:00,54.0,-99.9,-100.00,NNE,23,0.0,0.0,-999,0.00,,,0.00,,2013-07-24 02:40:00,
2013-07-23 22:07:00,52.0,-99.9,-100.00,NNE,23,0.0,0.0,-999,0.00,,,0.00,,2013-07-24 03:07:00,
2013-07-23 22:14:00,52.0,-99.9,-100.00,NNE,23,0.0,0.0,-999,0.00,,,0.00,,2013-07-24 03:14:00,
2013-07-23 22:40:00,51.0,-99.9,-100.00,NNE,23,0.0,0.0,-999,0.00,,,0.00,,2013-07-24 03:40:00,
2013-07-23 22:47:00,50.0,-99.9,-100.00,NNE,23,0.0,0.0,-999,0.00,,,0.00,,2013-07-24 03:47:00,
2013-07-23 23:02:00,49.0,-99.9,-100.00,NNE,23,0.0,0.0,-999,0.00,,,0.00,,2013-07-24 04:02:00,
2013-07-23 23:11:00,49.0,-99.9,-100.00,NNE,23,0.0,0.0,-999,0.00,,,0.00,,2013-07-24 04:11:00,
2013-07-23 23:32:00,48.0,-99.9,-100.00,NNE,23,0.0,0.0,-999,0.00,,,0.00,,2013-07-24 04:32:00,
2013-07-23 23:44:00,48.0,-99.9,-100.00,NNE,23,0.0,0.0,-999,0.00,,,0.00,,2013-07-24 04:44:00,